Location: Montclair
(37.8322°N, 122.2092°W)
Time: 00:36:33
(UTC+00:00)

Cosmos 1867 - Pass Details

Date: 13 December 2024
Orbit: 773 x 801 km, 65.0° (Epoch: 19 January)

Event Time Altitude Azimuth Distance (km) Brightness Sun altitude
Exits shadow 13:10:41 51° 332° (NNW) 1,002 3.8 -24.0°
Drops below altitude 10° 13:15:22 10° 22° (NNE) 2,377 6.1 -23.1°
Sets 13:17:52 0° 27° (NNE) 3,312 7.0 -22.6°
